THORAD AGENA D DEB, 4739

Orbit data source: Space-Track

THORAD AGENA D DEB, 4739 is space debris in SSO originally from a launch on Wed, 08 Apr 1970 UTC launched from the Air Force Western Test Range (AFWTR). Debris objects in space refer to the collection of defunct objects orbiting the Earth. Examples of debris include non-operational satellites, rocket bodies, and fragments generated from explosions, collisions, or faulty payload assembly.

Loading next visibility...
Identifier
4739, 1970-025CN
Orbit
SSO
Country
Flag of USUS
Related business
Manufacturer
Unknown
Mission
Spacecraft
Bus & Motor
Unknown
Mass
Unknown
Launch date (UTC)
1970-04-08 (56 years ago)
Launch vehicle
Unknown
Launch site
Air Force Western Test Range (AFWTR)
Object type
Payload
Rocket body
Debris
Shape & HBR
Unknown shape, 0.1 m
Radar Cross Section
Medium (>0.1 m² and <1 m²)

Expand to show TLE details & history
Last TLE update: 12 hours ago

TLE from 12 hours ago
0 THORAD AGENA D DEB
1 04739U 70025CN  26236.94803084  .00001426  00000-0  10293-2 0  9992
2 04739  99.9416 112.0228 0001531 340.0804  34.6436 13.98616614823787
Epoch: 2026-08-24T22:45Z
TLE epoch observation values (Epoch: 2026-08-24T22:45:09.864Z)
Latitude
14.48125°
Longitude
154.92834°
Altitude
899.797 km
Speed
7.404 km/s
True Right ascension
07h 17m 46s
True Declination
14° 23' 59"
Sunlit
Object was in daylight at epoch
Visualization orbit readout
Latitude
Unknown
Longitude
Unknown
Altitude
Unknown
Speed
Unknown
Apparent Right ascension
Unknown
Apparent Declination
Unknown
Sunlit
N/A
Visualization observer readout
Local Sidereal Time
02:29:18
Azimuth
Unknown
Elevation
Unknown
Doppler factor
Unknown
Orbital elements
Apogee altitude
896.953 km
Perigee altitude
894.726 km
Semi-major axis
7,273.976 km
Eccentricity
0.00015
Inclination
99.9416°
RAAN
112.0228°
Arg. of periapsis
340.0804°
True anomaly
34.65357°
Mean anomaly
34.6436°
Eccentric anomaly
34.64859°
Mean motion
3.49853 °/min
Orbital period
102.9 mins
BSTAR
0.0010293
Loading maneuver chart data...
Computing Atmospheric mass density...

Documentation

Showing up to 5 results
|